Showing default

LAGEOS 1, 8820

Orbit data source: Space-Track

LAGEOS 1, 8820 is a payload satellite owned by NASA MSFC (US) that was launched on Tue, 04 May 1976 UTC via a DELTA 2913 launch vehicle from the Air Force Western Test Range (AFWTR). Payload-class satellites include a variety of spacecraft equipped with specific instruments for various scientific and technological missions. These include communications satellites like Starlink; space stations such as the ISS; scientific satellites like the Hubble; Earth observation satellites from companies like Planet Labs, Umbra, and HawkEye 360; GPS; miniature CubeSats for education and research; and military/defense satellites.

Loading next visibility...
Identifier
8820, 1976-039A
Orbit
Active
Last TLE update
11 hours ago
Origin
Manufacturer
Bendix
Mission
Operational Civil Geodetic
Bus & Motor
LAGEOS, Unknown motor
Mass
411 kg wet, 411 kg dry
Launch date (UTC)
1976-05-04 (49 years ago)
Launch vehicle
DELTA 2913
Launch site
Air Force Western Test Range (AFWTR)
Object type
Payload
Rocket body
Debris
Shape & HBR
Sphere, 0.6 m
Radar Cross Section
0.283 m², Medium (>0.1 m² and < 1m²)

Expand to show TLE details & history

TLE from 11 hours ago
0 LAGEOS 1
1 08820U 76039A   25182.63136447 -.00000006  00000-0  00000-0 0  9992
2 08820 109.8568  59.2714 0044606  17.1883   0.4407  6.38665067890754
Epoch: 2025-07-01T15:09Z
TLE epoch observation values (Epoch: 2025-07-01T15:09:09.89Z)
Latitude
16.53558°
Longitude
-94.07982°
Altitude
5,839.147 km
Speed
5.726 km/s
True Right ascension
03h 32m 32s
True Declination
16° 28' 51"
Sunlit
Object was in daylight at epoch
Visualization orbit readout
Latitude
-4.35774°
Longitude
-86.21532°
Altitude
5,844.203 km
Speed
5.723 km/s
Apparent Right ascension
03h 27m 03s
Apparent Declination
-16° 49' 38"
Sunlit
Object is in daylight
Visualization observer readout
Local Sidereal Time
13:52:54
Azimuth
311.743° NW
Elevation
-59.185°
Doppler factor
1
Orbital elements
Apogee altitude
5,946.611 km
Perigee altitude
5,837.148 km
Semi-major axis
12,270.016 km
Eccentricity
0.00446
Inclination
109.8568°
RAAN
59.2714°
Arg. of periapsis
17.1883°
True anomaly
Unknown
Mean anomaly
0.4407°
Eccentric anomaly
Unknown
Mean motion
1.59689 °/min
Orbital period
225.44 mins
BSTAR
0
Loading maneuver chart data...
Loading SW <> Apogee altitude chart data...
Loading historical data...
Loading historical data...
Loading historical data...
Loading historical data...
Loading historical data...
Loading historical data...
Loading historical data...
Other satellites on launch #39 in the year 1976 (1976-05-04 UTC)

LAGEOS 1 Visibility forecast

Observer location: undefined°, undefined°

Span
Click to sort rows by Start time (UTC) header in descending order
Start Az.
Max El. time (UTC)
Max El. Az.
Max El.
End time (UTC)
End Az.
56 mins2025-07-02 03:16:52.330Z29.134° NE2025-07-02 03:45:52.330Z110.156° ESE38.811°2025-07-02 04:12:52.330Z182.872° SSW
52 mins2025-07-02 06:51:52.330Z27.786° NE2025-07-02 07:16:52.330Z320.751° NNW39.638°2025-07-02 07:43:52.330Z250.689° W
43 mins2025-07-02 10:17:52.330Z57.476° ENE2025-07-02 10:38:52.330Z4.96° NNE29.599°2025-07-02 11:00:52.330Z311.932° NW
54 mins2025-07-02 13:35:52.330Z124.347° SE2025-07-02 14:02:52.330Z43.209° NE42.992°2025-07-02 14:29:52.330Z333.185° NNW
49 mins2025-07-02 17:12:52.330Z196.9° SSW2025-07-02 17:36:52.330Z260.53° W31.206°2025-07-02 18:01:52.330Z325.381° NNW
13 mins2025-07-03 01:58:52.330Z41.618° NE2025-07-03 02:11:52.330Z70.861° E23.038°2025-07-03 02:11:52.330Z70.861° E
|